Weather in Delmenhorst

Germany     53°03′06″N   8°38′11″E
temp.,
°C
wind,
m/s
gust,
m/s
humid.,
%
clouds,
%
prec.,
mm/h
press.,
hPa
HPBL,
m
23 june, wed
wed2323:00+10nnw359376 0.0 101984
02:00+9nw229398 0.0 102045
05:00+10wnw2489100 0.0 1019112
08:00+13nw238048 0.0 1020386
11:00+16wnw2271100 0.0 1021907
14:00+19wnw326394 0.0 10201122
17:00+19nw326697 0.0 10211050
20:00+17n348088 0.0 1021472
24 june, thu
thu2423:00+12nnw36962 0.0 1022124
02:00+10n229643 0.0 102224
05:00+12nnw239197 0.0 1021108
08:00+13nnw2386100 0.0 1021174
11:00+18nnw127113 0.0 1020731
14:00+20wnw3364100 0.0 10191234
17:00+19nnw447598 0.1 1019646
20:00+17nnw457676 0.1 1018375
25 june, fri
fri2523:00+11n34845 0.0 101956
02:00+9nw22842 0.0 101912
05:00+8wnw33865 0.0 101830
08:00+12wnw226978 0.0 1018196
11:00+17w34540 0.0 1018751
14:00+20w33443 0.0 10181286
17:00+20wnw234888 0.0 10171441
20:00+19nw117198 0.0 101733
26 june, sat
sat2623:00+16nnw0071100 0.0 101811
02:00+16sw1176100 0.0 101914
05:00+15w239095 0.0 101964
08:00+16w2386100 0.0 1019269
11:00+19w3376100 0.4 1020844
14:00+21nw227299 1.5 1019816
17:00+21nne117158 1.6 1019889
20:00+20nne338449 1.8 1019256
27 june, sun
sun2723:00+16ne3696100 0.8 1019119
02:00+14ne339693 0.9 101958
05:00+14e239698 0.0 101940
08:00+17e348789 0.0 1019218
11:00+22e34685 0.0 1018645
14:00+25e34546 0.0 10171531
17:00+26se235137 0.0 10161769
20:00+24ene2272100 0.1 101534